| time (UTC) | temp F | wind direction | speed knots | gust knots | rain 1hr in | rain 24hr in | rain mn in | humidity % | barometer mb |
| 20260505122056 | 48 | 16 | 0.0 | 0.0 | 0.00 | 0.00 | 0.00 | 99 | 1014.0 |
| 20260505121552 | 47 | 16 | 0.0 | 0.0 | 0.00 | 0.00 | 0.00 | 99 | 1014.0 |
| 20260505121049 | 47 | 16 | 0.0 | 0.9 | 0.00 | 0.00 | 0.00 | 99 | 1013.9 |
| 20260505120546 | 47 | 15 | 0.0 | 0.9 | 0.00 | 0.00 | 0.00 | 99 | 1014.0 |
| 20260505120041 | 47 | 10 | 0.9 | 0.9 | 0.00 | 0.00 | 0.00 | 99 | 1013.8 |
| 20260505115536 | 47 | 14 | 0.9 | 0.9 | 0.00 | 0.00 | 0.00 | 99 | 1013.8 |
| 20260505115034 | 46 | 16 | 0.0 | 0.0 | 0.00 | 0.00 | 0.00 | 99 | 1013.8 |
| 20260505114530 | 46 | 16 | 0.0 | 0.0 | 0.00 | 0.00 | 0.00 | 99 | 1013.8 |
| 20260505114027 | 46 | 16 | 0.0 | 0.0 | 0.00 | 0.00 | 0.00 | 99 | 1013.8 |
| 20260505113523 | 46 | 16 | 0.0 | 0.0 | 0.00 | 0.00 | 0.00 | 99 | 1013.7 |
| 20260505113020 | 47 | 16 | 0.0 | 0.0 | 0.00 | 0.00 | 0.00 | 99 | 1013.7 |
| 20260505112517 | 47 | 16 | 0.0 | 0.0 | 0.00 | 0.00 | 0.00 | 99 | 1013.7 |
| 20260505112015 | 47 | 16 | 0.0 | 0.0 | 0.00 | 0.00 | 0.00 | 99 | 1013.8 |
| 20260505111513 | 46 | 16 | 0.0 | 0.0 | 0.00 | 0.00 | 0.00 | 99 | 1013.8 |
| 20260505111010 | 46 | 16 | 0.0 | 0.0 | 0.00 | 0.00 | 0.00 | 99 | 1013.7 |
| 20260505110507 | 46 | 16 | 0.0 | 0.0 | 0.00 | 0.00 | 0.00 | 99 | 1013.5 |
| 20260505101939 | 47 | 16 | 0.0 | 0.0 | 0.00 | 0.00 | 0.00 | 99 | 1013.1 |
| 20260505101438 | 47 | 16 | 0.0 | 0.0 | 0.00 | 0.00 | 0.00 | 99 | 1013.4 |
| 20260505100934 | 47 | 16 | 0.0 | 0.0 | 0.00 | 0.00 | 0.00 | 99 | 1013.3 |
| 20260505100431 | 47 | 16 | 0.0 | 0.0 | 0.00 | 0.00 | 0.00 | 99 | 1013.2 |
| 20260505095926 | 47 | 16 | 0.0 | 0.0 | 0.00 | 0.00 | 0.00 | 99 | 1013.5 |
| 20260505095424 | 47 | 16 | 0.0 | 0.0 | 0.00 | 0.00 | 0.00 | 99 | 1013.2 |
| 20260505094920 | 47 | 16 | 0.0 | 0.0 | 0.00 | 0.00 | 0.00 | 99 | 1013.1 |
| 20260505094417 | 47 | 16 | 0.0 | 0.0 | 0.00 | 0.00 | 0.00 | 99 | 1013.1 |
| 20260505093913 | 47 | 16 | 0.0 | 0.0 | 0.00 | 0.00 | 0.00 | 99 | 1013.2 |
| 20260505093410 | 47 | 16 | 0.0 | 0.0 | 0.00 | 0.00 | 0.00 | 99 | 1013.2 |
| 20260505092907 | 47 | 16 | 0.0 | 0.0 | 0.00 | 0.00 | 0.00 | 99 | 1013.2 |
| 20260505092405 | 47 | 16 | 0.0 | 0.0 | 0.00 | 0.00 | 0.00 | 99 | 1013.1 |
| 20260505091902 | 47 | 16 | 0.0 | 0.0 | 0.00 | 0.00 | 0.00 | 99 | 1013.0 |
| 20260505091400 | 47 | 16 | 0.0 | 0.0 | 0.00 | 0.00 | 0.00 | 99 | 1013.3 |
| 20260505090858 | 48 | 18 | 0.0 | 0.0 | 0.00 | 0.00 | 0.00 | 99 | 1013.5 |
| 20260505090356 | 47 | 19 | 0.0 | 0.0 | 0.00 | 0.00 | 0.00 | 99 | 1013.3 |
| 20260505085853 | 47 | 22 | 0.0 | 0.0 | 0.00 | 0.00 | 0.00 | 99 | 1013.2 |
| 20260505085351 | 47 | 22 | 0.0 | 0.0 | 0.00 | 0.00 | 0.00 | 99 | 1013.0 |
| 20260505084848 | 48 | 22 | 0.0 | 0.0 | 0.00 | 0.00 | 0.00 | 99 | 1013.2 |
| 20260505084346 | 48 | 22 | 0.0 | 0.0 | 0.00 | 0.00 | 0.00 | 99 | 1013.0 |
| 20260505083844 | 48 | 22 | 0.0 | 0.0 | 0.00 | 0.00 | 0.00 | 99 | 1013.0 |
| 20260505083341 | 48 | 22 | 0.0 | 0.0 | 0.00 | 0.00 | 0.00 | 99 | 1013.0 |
| 20260505082837 | 48 | 22 | 0.9 | 0.9 | 0.00 | 0.00 | 0.00 | 99 | 1013.0 |
| 20260505082333 | 48 | 20 | 0.0 | 0.0 | 0.00 | 0.00 | 0.00 | 99 | 1013.0 |
| 20260505081830 | 48 | 20 | 0.0 | 0.0 | 0.00 | 0.00 | 0.00 | 99 | 1013.0 |
| 20260505081327 | 48 | 20 | 0.0 | 0.0 | 0.00 | 0.00 | 0.00 | 99 | 1012.8 |
| 20260505080824 | 48 | 20 | 0.0 | 0.0 | 0.00 | 0.00 | 0.00 | 99 | 1012.8 |
| 20260505080320 | 48 | 19 | 0.0 | 0.0 | 0.00 | 0.00 | 0.00 | 99 | 1012.7 |
| 20260505075815 | 48 | 22 | 0.0 | 0.0 | 0.00 | 0.00 | 0.00 | 98 | 1012.6 |
| 20260505075313 | 47 | 19 | 0.0 | 0.0 | 0.00 | 0.00 | 0.00 | 98 | 1012.6 |
| 20260505074810 | 47 | 22 | 0.0 | 0.0 | 0.00 | 0.00 | 0.00 | 98 | 1012.7 |
| 20260505074307 | 47 | 27 | 0.0 | 0.0 | 0.00 | 0.00 | 0.00 | 98 | 1012.7 |
| 20260505073804 | 48 | 28 | 0.0 | 0.0 | 0.00 | 0.00 | 0.00 | 98 | 1012.5 |
| 20260505073302 | 47 | 27 | 0.0 | 0.0 | 0.00 | 0.00 | 0.00 | 98 | 1012.7 |
| 20260505072759 | 48 | 27 | 0.0 | 0.0 | 0.00 | 0.00 | 0.00 | 98 | 1012.4 |
| 20260505072255 | 48 | 27 | 0.0 | 0.0 | 0.00 | 0.00 | 0.00 | 98 | 1012.4 |
| 20260505071751 | 48 | 27 | 0.0 | 0.0 | 0.00 | 0.00 | 0.00 | 98 | 1012.4 |
| 20260505071247 | 48 | 27 | 0.0 | 0.0 | 0.00 | 0.00 | 0.00 | 98 | 1012.6 |
| 20260505070745 | 48 | 28 | 0.0 | 0.0 | 0.00 | 0.00 | 0.00 | 98 | 1012.5 |
| 20260505070241 | 48 | 28 | 0.0 | 0.0 | 0.00 | 0.00 | 0.00 | 98 | 1012.5 |
| 20260505065737 | 48 | 28 | 0.0 | 0.0 | 0.00 | 0.00 | 0.00 | 98 | 1012.4 |
| 20260505065234 | 48 | 28 | 0.0 | 0.0 | 0.00 | 0.00 | 0.00 | 98 | 1012.4 |
| 20260505064731 | 48 | 28 | 0.0 | 0.0 | 0.00 | 0.00 | 0.00 | 98 | 1012.4 |
| 20260505064229 | 48 | 28 | 0.0 | 0.0 | 0.00 | 0.00 | 0.00 | 97 | 1012.5 |
| 20260505063726 | 48 | 28 | 0.0 | 0.0 | 0.00 | 0.00 | 0.00 | 97 | 1012.4 |
| 20260505063222 | 48 | 28 | 0.0 | 0.0 | 0.00 | 0.00 | 0.00 | 97 | 1012.3 |
| 20260505062718 | 48 | 28 | 0.0 | 0.0 | 0.00 | 0.00 | 0.00 | 97 | 1012.4 |
| 20260505062216 | 48 | 27 | 0.0 | 0.0 | 0.00 | 0.00 | 0.00 | 96 | 1012.3 |
| 20260505061713 | 49 | 28 | 0.0 | 0.0 | 0.00 | 0.00 | 0.00 | 96 | 1012.5 |
| 20260505061211 | 49 | 29 | 0.0 | 0.0 | 0.00 | 0.00 | 0.00 | 96 | 1012.7 |
| 20260505060708 | 49 | 30 | 0.0 | 0.0 | 0.00 | 0.00 | 0.00 | 95 | 1012.4 |
| 20260505060205 | 49 | 30 | 0.0 | 0.0 | 0.00 | 0.00 | 0.00 | 95 | 1012.4 |
| 20260505055700 | 49 | 30 | 0.0 | 0.0 | 0.00 | 0.00 | 0.00 | 95 | 1012.7 |
| 20260505055157 | 49 | 30 | 0.0 | 0.9 | 0.00 | 0.00 | 0.00 | 95 | 1012.4 |
| 20260505054654 | 49 | 30 | 0.0 | 0.9 | 0.00 | 0.00 | 0.00 | 95 | 1012.4 |
| 20260505054152 | 50 | 30 | 0.0 | 0.0 | 0.00 | 0.00 | 0.00 | 94 | 1012.3 |
| 20260505053650 | 50 | 30 | 0.0 | 0.9 | 0.00 | 0.00 | 0.00 | 93 | 1012.7 |
| 20260505053146 | 50 | 30 | 0.0 | 0.0 | 0.00 | 0.00 | 0.00 | 93 | 1012.4 |
| 20260505052643 | 50 | 29 | 0.0 | 0.9 | 0.00 | 0.00 | 0.00 | 93 | 1012.4 |
| 20260505052140 | 50 | 30 | 0.0 | 0.0 | 0.00 | 0.00 | 0.00 | 92 | 1012.5 |
| 20260505051637 | 50 | 30 | 0.0 | 0.9 | 0.00 | 0.00 | 0.00 | 92 | 1012.4 |
| 20260505051136 | 50 | 30 | 0.0 | 0.0 | 0.00 | 0.00 | 0.00 | 91 | 1012.2 |
| 20260505050633 | 51 | 30 | 0.0 | 0.0 | 0.00 | 0.00 | 0.00 | 91 | 1012.3 |
| 20260505050131 | 51 | 30 | 0.0 | 0.9 | 0.00 | 0.00 | 0.00 | 91 | 1012.2 |
| 20260505041601 | 53 | 32 | 0.0 | 0.9 | 0.00 | 0.00 | 0.00 | 89 | 1011.5 |
| 20260505041058 | 53 | 23 | 0.9 | 0.9 | 0.00 | 0.00 | 0.00 | 89 | 1011.4 |
| 20260505040555 | 53 | 32 | 0.0 | 0.0 | 0.00 | 0.00 | 0.00 | 88 | 1011.4 |
| 20260505040052 | 54 | 44 | 0.0 | 0.0 | 0.00 | 0.00 | 0.00 | 88 | 1011.4 |
| 20260505035548 | 54 | 42 | 0.0 | 0.0 | 0.00 | 0.00 | 0.00 | 88 | 1011.1 |
| 20260505035045 | 54 | 36 | 0.0 | 0.9 | 0.00 | 0.00 | 0.00 | 88 | 1011.1 |
| 20260505034541 | 55 | 30 | 0.9 | 0.9 | 0.00 | 0.00 | 0.00 | 87 | 1011.1 |
| 20260505034038 | 55 | 41 | 0.9 | 0.9 | 0.00 | 0.00 | 0.00 | 87 | 1011.0 |
| 20260505033535 | 55 | 32 | 0.9 | 0.9 | 0.00 | 0.00 | 0.00 | 87 | 1010.9 |
| 20260505033034 | 55 | 27 | 0.9 | 0.9 | 0.00 | 0.00 | 0.00 | 87 | 1010.9 |
| 20260505032531 | 55 | 22 | 0.9 | 0.9 | 0.00 | 0.00 | 0.00 | 86 | 1010.9 |
| 20260505032027 | 55 | 44 | 0.0 | 0.0 | 0.00 | 0.00 | 0.00 | 86 | 1010.9 |
| 20260505031525 | 56 | 32 | 0.9 | 0.9 | 0.00 | 0.00 | 0.00 | 85 | 1010.8 |
| 20260505031021 | 56 | 181 | 0.0 | 0.9 | 0.00 | 0.00 | 0.00 | 84 | 1010.7 |
| 20260505030518 | 57 | 56 | 0.0 | 0.0 | 0.00 | 0.00 | 0.00 | 84 | 1010.8 |
| 20260505030014 | 57 | 43 | 0.0 | 0.0 | 0.00 | 0.00 | 0.00 | 84 | 1010.8 |
| 20260505025510 | 57 | 114 | 0.9 | 0.9 | 0.00 | 0.00 | 0.00 | 82 | 1010.7 |
| 20260505025009 | 58 | 74 | 0.9 | 0.9 | 0.00 | 0.00 | 0.00 | 82 | 1010.8 |
| 20260505024505 | 58 | 58 | 0.0 | 0.0 | 0.00 | 0.00 | 0.00 | 82 | 1010.4 |
| 20260505024003 | 59 | 28 | 0.9 | 0.9 | 0.00 | 0.00 | 0.00 | 80 | 1010.1 |
| 20260505023459 | 59 | 101 | 0.0 | 0.9 | 0.00 | 0.00 | 0.00 | 80 | 1010.1 |
| 20260505022957 | 59 | 164 | 2.6 | 4.3 | 0.00 | 0.00 | 0.00 | 80 | 1010.1 |
| 20260505022455 | 60 | 73 | 0.9 | 0.9 | 0.00 | 0.00 | 0.00 | 78 | 1010.0 |
| 20260505021952 | 60 | 45 | 0.0 | 0.0 | 0.00 | 0.00 | 0.00 | 79 | 1010.5 |
| 20260505021448 | 60 | 55 | 0.0 | 0.0 | 0.00 | 0.00 | 0.00 | 77 | 1010.2 |
| 20260505020944 | 61 | 67 | 0.0 | 0.0 | 0.00 | 0.00 | 0.00 | 78 | 1010.4 |
| 20260505020439 | 61 | 38 | 0.0 | 0.0 | 0.00 | 0.00 | 0.00 | 77 | 1010.4 |
| 20260505015936 | 62 | 109 | 0.9 | 0.9 | 0.00 | 0.00 | 0.00 | 76 | 1010.6 |
| 20260505015433 | 62 | 100 | 2.6 | 2.6 | 0.00 | 0.00 | 0.00 | 76 | 1010.4 |
| 20260505014931 | 62 | 51 | 0.0 | 0.0 | 0.00 | 0.00 | 0.00 | 76 | 1010.4 |
| 20260505014428 | 63 | 35 | 0.9 | 0.9 | 0.00 | 0.00 | 0.00 | 75 | 1010.4 |
| 20260505013925 | 63 | 115 | 0.9 | 1.7 | 0.00 | 0.00 | 0.00 | 74 | 1010.1 |
| 20260505013421 | 63 | 35 | 0.9 | 0.9 | 0.00 | 0.00 | 0.00 | 75 | 1010.1 |
| 20260505012919 | 64 | 80 | 0.0 | 0.0 | 0.00 | 0.00 | 0.00 | 74 | 1010.4 |
| 20260505012417 | 64 | 150 | 0.9 | 1.7 | 0.00 | 0.00 | 0.00 | 74 | 1010.5 |
| 20260505011913 | 64 | 46 | 0.0 | 0.0 | 0.00 | 0.00 | 0.00 | 73 | 1010.6 |
| 20260505011410 | 64 | 159 | 2.6 | 2.6 | 0.00 | 0.00 | 0.00 | 74 | 1010.7 |
| 20260505010906 | 65 | 56 | 0.9 | 1.7 | 0.00 | 0.00 | 0.00 | 73 | 1010.6 |
| 20260505010402 | 65 | 27 | 0.0 | 0.9 | 0.00 | 0.00 | 0.00 | 72 | 1010.5 |
| 20260505005858 | 66 | 56 | 0.9 | 0.9 | 0.00 | 0.00 | 0.00 | 72 | 1010.5 |
| 20260505005355 | 66 | 44 | 0.9 | 0.9 | 0.00 | 0.00 | 0.00 | 73 | 1010.6 |
| 20260505004853 | 67 | 191 | 0.9 | 1.7 | 0.00 | 0.00 | 0.00 | 72 | 1010.8 |
| 20260505004349 | 67 | 114 | 2.6 | 2.6 | 0.00 | 0.00 | 0.00 | 72 | 1010.5 |
| 20260505003846 | 67 | 99 | 0.9 | 0.9 | 0.00 | 0.00 | 0.00 | 71 | 1010.6 |
| 20260505003344 | 68 | 81 | 0.0 | 0.0 | 0.00 | 0.00 | 0.00 | 70 | 1010.4 |
| 20260505002839 | 69 | 61 | 0.0 | 0.9 | 0.00 | 0.00 | 0.00 | 69 | 1010.7 |
| 20260505002336 | 69 | 93 | 0.9 | 1.7 | 0.00 | 0.00 | 0.00 | 68 | 1010.5 |
| 20260505001835 | 69 | 208 | 1.7 | 1.7 | 0.00 | 0.00 | 0.00 | 69 | 1010.7 |
| 20260505001331 | 69 | 102 | 0.9 | 0.9 | 0.00 | 0.00 | 0.00 | 71 | 1010.7 |
| 20260505000829 | 69 | 118 | 1.7 | 1.7 | 0.00 | 0.00 | 0.00 | 71 | 1010.6 |
| 20260505000326 | 69 | 140 | 0.9 | 0.9 | 0.00 | 0.00 | 0.00 | 71 | 1010.7 |
| 20260504235823 | 69 | 204 | 3.5 | 4.3 | 0.00 | 0.00 | 0.00 | 66 | 1010.9 |
| 20260504235320 | 69 | 208 | 2.6 | 2.6 | 0.00 | 0.00 | 0.00 | 67 | 1010.9 |
| 20260504234817 | 69 | 98 | 1.7 | 1.7 | 0.00 | 0.00 | 0.00 | 69 | 1010.7 |
| 20260504234314 | 69 | 159 | 1.7 | 2.6 | 0.00 | 0.00 | 0.00 | 73 | 1010.8 |
| 20260504233810 | 70 | 169 | 2.6 | 2.6 | 0.00 | 0.00 | 0.00 | 69 | 1010.9 |
| 20260504233306 | 69 | 92 | 0.9 | 1.7 | 0.00 | 0.00 | 0.00 | 73 | 1010.8 |
| 20260504232803 | 68 | 162 | 2.6 | 2.6 | 0.00 | 0.00 | 0.00 | 70 | 1010.8 |
| 20260504232300 | 69 | 143 | 4.3 | 5.2 | 0.00 | 0.00 | 0.00 | 71 | 1010.9 |
| 20260504231757 | 69 | 170 | 2.6 | 2.6 | 0.00 | 0.00 | 0.00 | 69 | 1010.7 |
| 20260504231254 | 69 | 92 | 0.9 | 1.7 | 0.00 | 0.00 | 0.00 | 67 | 1010.7 |
| 20260504230750 | 70 | 204 | 2.6 | 2.6 | 0.00 | 0.00 | 0.00 | 65 | 1010.8 |
| 20260504230248 | 69 | 236 | 1.7 | 1.7 | 0.00 | 0.00 | 0.00 | 67 | 1011.3 |
| 20260504225747 | 70 | 179 | 3.5 | 5.2 | 0.00 | 0.00 | 0.00 | 69 | 1011.0 |
| 20260504225242 | 70 | 85 | 0.9 | 1.7 | 0.00 | 0.00 | 0.00 | 69 | 1011.2 |
| 20260504224740 | 69 | 54 | 0.9 | 0.9 | 0.00 | 0.00 | 0.00 | 71 | 1011.1 |
| 20260504224237 | 71 | 187 | 4.3 | 6.1 | 0.00 | 0.00 | 0.00 | 69 | 1011.2 |
| 20260504223733 | 70 | 326 | 1.7 | 1.7 | 0.00 | 0.00 | 0.00 | 68 | 1011.2 |
| 20260504223229 | 69 | 172 | 2.6 | 2.6 | 0.00 | 0.00 | 0.00 | 71 | 1011.3 |
| 20260504222726 | 70 | 229 | 3.5 | 4.3 | 0.00 | 0.00 | 0.00 | 69 | 1011.2 |
| 20260504222223 | 69 | 177 | 5.2 | 6.1 | 0.00 | 0.00 | 0.00 | 71 | 1011.4 |
| 20260504221720 | 70 | 240 | 2.6 | 4.3 | 0.00 | 0.00 | 0.00 | 73 | 1011.1 |
| 20260504221217 | 69 | 212 | 3.5 | 4.3 | 0.00 | 0.00 | 0.00 | 67 | 1011.5 |
| 20260504220714 | 69 | 207 | 4.3 | 5.2 | 0.00 | 0.00 | 0.00 | 70 | 1011.2 |
| 20260504220211 | 70 | 206 | 2.6 | 2.6 | 0.00 | 0.00 | 0.00 | 68 | 1011.6 |
| 20260504215707 | 69 | 154 | 2.6 | 4.3 | 0.00 | 0.00 | 0.00 | 70 | 1011.6 |
| 20260504215205 | 68 | 192 | 2.6 | 2.6 | 0.00 | 0.00 | 0.00 | 77 | 1011.4 |
| 20260504214700 | 68 | 217 | 3.5 | 5.2 | 0.00 | 0.00 | 0.00 | 73 | 1011.7 |
| 20260504214157 | 68 | 185 | 1.7 | 2.6 | 0.00 | 0.00 | 0.00 | 77 | 1011.6 |
| 20260504213654 | 69 | 191 | 4.3 | 5.2 | 0.00 | 0.00 | 0.00 | 77 | 1011.5 |
| 20260504213151 | 69 | 146 | 2.6 | 2.6 | 0.00 | 0.00 | 0.00 | 73 | 1011.4 |
| 20260504212647 | 69 | 115 | 0.9 | 0.9 | 0.00 | 0.00 | 0.00 | 75 | 1011.6 |
| 20260504212144 | 69 | 251 | 1.7 | 1.7 | 0.00 | 0.00 | 0.00 | 76 | 1011.8 |
| 20260504211641 | 68 | 237 | 2.6 | 2.6 | 0.00 | 0.00 | 0.00 | 79 | 1011.8 |
| 20260504211137 | 67 | 231 | 3.5 | 5.2 | 0.00 | 0.00 | 0.00 | 73 | 1011.8 |
| 20260504210635 | 68 | 261 | 2.6 | 2.6 | 0.00 | 0.00 | 0.00 | 75 | 1011.9 |
| 20260504210131 | 67 | 209 | 5.2 | 7.0 | 0.00 | 0.00 | 0.00 | 73 | 1011.9 |
| 20260504205629 | 66 | 77 | 0.9 | 1.7 | 0.00 | 0.00 | 0.00 | 73 | 1012.0 |
| 20260504205126 | 67 | 234 | 2.6 | 2.6 | 0.00 | 0.00 | 0.00 | 71 | 1012.1 |
| 20260504204625 | 66 | 192 | 3.5 | 4.3 | 0.00 | 0.00 | 0.00 | 77 | 1012.0 |
| 20260504204123 | 68 | 210 | 2.6 | 4.3 | 0.00 | 0.00 | 0.00 | 79 | 1012.1 |
| 20260504203622 | 66 | 185 | 2.6 | 2.6 | 0.00 | 0.00 | 0.00 | 74 | 1012.2 |
| 20260504203120 | 66 | 121 | 1.7 | 2.6 | 0.00 | 0.00 | 0.00 | 76 | 1012.2 |
| 20260504202619 | 67 | 190 | 4.3 | 7.0 | 0.00 | 0.00 | 0.00 | 77 | 1012.2 |
| 20260504202117 | 66 | 197 | 2.6 | 4.3 | 0.00 | 0.00 | 0.00 | 76 | 1012.3 |
| 20260504201613 | 66 | 187 | 4.3 | 6.1 | 0.00 | 0.00 | 0.00 | 78 | 1012.2 |
| 20260504201111 | 67 | 169 | 4.3 | 7.0 | 0.00 | 0.00 | 0.00 | 77 | 1012.1 |
| 20260504200608 | 66 | 277 | 1.7 | 2.6 | 0.00 | 0.00 | 0.00 | 80 | 1012.1 |
| 20260504200104 | 65 | 159 | 4.3 | 5.2 | 0.00 | 0.00 | 0.00 | 75 | 1012.3 |
| 20260504195600 | 65 | 185 | 1.7 | 2.6 | 0.00 | 0.00 | 0.00 | 76 | 1012.2 |
| 20260504195057 | 66 | 184 | 3.5 | 6.1 | 0.00 | 0.00 | 0.00 | 76 | 1012.2 |
| 20260504194554 | 64 | 188 | 1.7 | 1.7 | 0.00 | 0.00 | 0.00 | 77 | 1012.3 |
| 20260504194049 | 65 | 145 | 5.2 | 7.0 | 0.00 | 0.00 | 0.00 | 78 | 1012.2 |
| 20260504193546 | 65 | 81 | 1.7 | 1.7 | 0.00 | 0.00 | 0.00 | 76 | 1012.3 |
| 20260504193045 | 64 | 98 | 1.7 | 1.7 | 0.00 | 0.00 | 0.00 | 75 | 1012.3 |
| 20260504192543 | 64 | 205 | 3.5 | 4.3 | 0.00 | 0.00 | 0.00 | 78 | 1012.2 |
| 20260504192040 | 64 | 161 | 2.6 | 4.3 | 0.00 | 0.00 | 0.00 | 81 | 1012.2 |
| 20260504191538 | 65 | 179 | 2.6 | 2.6 | 0.00 | 0.00 | 0.00 | 76 | 1012.4 |
| 20260504191034 | 64 | 216 | 1.7 | 1.7 | 0.00 | 0.00 | 0.00 | 79 | 1012.5 |
| 20260504190531 | 64 | 225 | 3.5 | 4.3 | 0.00 | 0.00 | 0.00 | 82 | 1012.3 |
| 20260504190026 | 64 | 206 | 3.5 | 6.1 | 0.00 | 0.00 | 0.00 | 75 | 1012.6 |
| 20260504185524 | 64 | 113 | 2.6 | 2.6 | 0.00 | 0.00 | 0.00 | 79 | 1012.4 |
| 20260504185020 | 64 | 141 | 4.3 | 7.0 | 0.00 | 0.00 | 0.00 | 79 | 1012.4 |
| 20260504184515 | 65 | 179 | 2.6 | 4.3 | 0.00 | 0.00 | 0.00 | 76 | 1012.5 |
| 20260504184011 | 64 | 78 | 0.9 | 1.7 | 0.00 | 0.00 | 0.00 | 84 | 1012.5 |
| 20260504183509 | 64 | 180 | 7.0 | 7.8 | 0.00 | 0.00 | 0.00 | 77 | 1012.4 |
| 20260504183007 | 64 | 173 | 3.5 | 4.3 | 0.00 | 0.00 | 0.00 | 78 | 1012.5 |
| 20260504182503 | 63 | 115 | 0.9 | 1.7 | 0.00 | 0.00 | 0.00 | 77 | 1012.6 |
| 20260504182000 | 63 | 176 | 6.1 | 6.1 | 0.00 | 0.00 | 0.00 | 76 | 1012.5 |
| 20260504181457 | 63 | 180 | 1.7 | 1.7 | 0.00 | 0.00 | 0.00 | 81 | 1012.5 |
| 20260504180956 | 63 | 205 | 2.6 | 2.6 | 0.00 | 0.00 | 0.00 | 76 | 1012.6 |
| 20260504180455 | 64 | 184 | 2.6 | 4.3 | 0.00 | 0.00 | 0.00 | 74 | 1012.5 |
| 20260504175953 | 63 | 32 | 0.9 | 0.9 | 0.00 | 0.00 | 0.00 | 76 | 1012.5 |
| 20260504175449 | 62 | 108 | 0.0 | 0.9 | 0.00 | 0.00 | 0.00 | 77 | 1012.1 |
| 20260504174947 | 62 | 224 | 2.6 | 2.6 | 0.00 | 0.00 | 0.00 | 77 | 1012.3 |
| 20260504174444 | 63 | 126 | 1.7 | 1.7 | 0.00 | 0.00 | 0.00 | 76 | 1012.3 |
| 20260504173942 | 62 | 76 | 0.0 | 0.0 | 0.00 | 0.00 | 0.00 | 76 | 1012.4 |
| 20260504173437 | 60 | 62 | 0.0 | 0.0 | 0.00 | 0.00 | 0.00 | 80 | 1012.5 |
| 20260504172936 | 61 | 119 | 0.9 | 0.9 | 0.00 | 0.00 | 0.00 | 80 | 1012.5 |
| 20260504172431 | 62 | 93 | 0.9 | 0.9 | 0.00 | 0.00 | 0.00 | 80 | 1012.3 |
| 20260504171928 | 60 | 92 | 0.9 | 0.9 | 0.00 | 0.00 | 0.00 | 81 | 1012.5 |
| 20260504171425 | 59 | 60 | 1.7 | 1.7 | 0.00 | 0.00 | 0.00 | 84 | 1012.7 |
| 20260504170922 | 58 | 44 | 1.7 | 2.6 | 0.00 | 0.00 | 0.00 | 84 | 1012.9 |
| 20260504170418 | 60 | 55 | 1.7 | 1.7 | 0.00 | 0.00 | 0.00 | 82 | 1012.7 |
| 20260504160337 | 56 | 79 | 0.9 | 1.7 | 0.00 | 0.00 | 0.00 | 88 | 1012.5 |
| 20260504150802 | 51 | 56 | 0.0 | 0.0 | 0.00 | 0.00 | 0.00 | 96 | 1012.4 |
| 20260504150258 | 51 | 93 | 2.6 | 2.6 | 0.00 | 0.00 | 0.00 | 96 | 1012.2 |
| 20260504141229 | 52 | 57 | 1.7 | 1.7 | 0.00 | 0.00 | 0.00 | 93 | 1011.5 |
| 20260504140725 | 52 | 95 | 1.7 | 1.7 | 0.00 | 0.00 | 0.00 | 94 | 1011.6 |
| 20260504140220 | 51 | 89 | 0.0 | 0.0 | 0.00 | 0.00 | 0.00 | 94 | 1011.6 |
| 20260504130649 | 48 | 34 | 0.0 | 0.0 | 0.00 | 0.00 | 0.00 | 99 | 1010.7 |
| 20260504130145 | 48 | 32 | 0.0 | 0.0 | 0.00 | 0.00 | 0.00 | 99 | 1010.7 |